Weather History for KBIL - August, 2014

Change the Weather History Date:

Tuesday, August 19, 2014

  Actual Average Record
Temperature  
Mean Temperature 76 °F 71 °F  
Max Temperature 92 °F 85 °F 101 °F (2008)
Min Temperature 59 °F 57 °F 45 °F (1950)
Degree Days  
Heating Degree Days 0 1  
Month to date heating degree days 0 4  
Since 1 June heating degree days 90 115  
Since 1 July heating degree days 1 19  
Cooling Degree Days 11 7  
Month to date cooling degree days 190 158  
Year to date cooling degree days 529 516  
Since 1 June cooling degree days 513 499  
Growing Degree Days 25 (Base 50)    
Moisture  
Dew Point 44 °F    
Average Humidity 39    
Maximum Humidity 64    
Minimum Humidity 14    
Precipitation  
Precipitation 0.00 in 0.02 in 0.37 in (1964)
Month to date precipitation 0.20 0.47  
Year to date precipitation 10.12 9.77  
Snow  
Snow 0.00 in 0.00 in 0.00 in (2002)
Month to date snowfall 0.0 0.0  
Since 1 June snowfall T 0.0  
Since 1 July snowfall 0.0 0.0  
Snow Depth 0.00 in    
Sea Level Pressure  
Sea Level Pressure 29.69 in    
Wind  
Wind Speed 10 mph (SW)    
Max Wind Speed 20 mph    
Max Gust Speed 25 mph    
Visibility 10 miles    
Events      
T = Trace of Precipitation, MM = Missing Value Source: NWS Daily Summary

Daily Weather History Graph

Daily Weather History Graph

Search for Another Location

Airport or City:

Trip Planner

Search our weather history database for the weather conditions in past years. The results will help you decide how hot, cold, wet, or windy it might be!

Date:

Astronomy

Aug. 19, 2014 Rise Set
Actual Time 6:19 AM MDT 8:15 PM MDT
Civil Twilight 5:47 AM MDT 8:47 PM MDT
Nautical Twilight 5:07 AM MDT 9:26 PM MDT
Astronomical Twilight 4:24 AM MDT 10:09 PM MDT
Moon 1:08 AM MDT (8/19) 4:20 PM MDT (8/19)
Length of Visible Light 15h 00m
Length of Day
13h 56m
Waning Crescent, 28% of the Moon is Illuminated
Aug 19
Waning Crescent
Aug 25
New
Sep 2
First Quarter
Sep 8
Full
Sep 15
Last Quarter

Hourly Weather History & Observations

Time (MDT) Temp. Dew Point Humidity Pressure Visibility Wind Dir Wind Speed Gust Speed Precip Events Conditions
12:53 AM 71.1 °F 48.0 °F 44% 29.75 in 10.0 mi SW 10.4 mph - N/A   Clear
1:53 AM 66.9 °F 48.9 °F 52% 29.74 in 10.0 mi SW 9.2 mph - N/A   Clear
2:53 AM 66.2 °F 48.2 °F 52% 29.83 in 10.0 mi SSW 9.2 mph - N/A   Clear
3:53 AM 64.9 °F 48.0 °F 54% 29.73 in 10.0 mi WSW 9.2 mph - N/A   Clear
4:53 AM 63.0 °F 46.9 °F 56% 29.73 in 10.0 mi SW 9.2 mph - N/A   Clear
5:53 AM 60.8 °F 48.2 °F 63% 29.83 in 10.0 mi SSW 11.5 mph - N/A   Partly Cloudy
6:53 AM 61.0 °F 46.0 °F 58% 29.74 in 10.0 mi SSW 12.7 mph - N/A   Partly Cloudy
7:53 AM 63.0 °F 44.1 °F 50% 29.73 in 10.0 mi SW 10.4 mph - N/A   Partly Cloudy
8:53 AM 64.9 °F 46.0 °F 50% 29.73 in 10.0 mi SW 13.8 mph - N/A   Partly Cloudy
9:53 AM 71.1 °F 48.0 °F 44% 29.72 in 10.0 mi SSW 8.1 mph - N/A   Partly Cloudy
10:53 AM 79.0 °F 48.0 °F 34% 29.71 in 10.0 mi WSW 11.5 mph - N/A   Partly Cloudy
11:53 AM 84.0 °F 42.1 °F 23% 29.69 in 10.0 mi WSW 8.1 mph - N/A   Partly Cloudy
12:53 PM 87.1 °F 42.1 °F 21% 29.67 in 10.0 mi WSW 8.1 mph - N/A   Scattered Clouds
1:53 PM 90.0 °F 43.0 °F 19% 29.64 in 10.0 mi SW 9.2 mph - N/A   Scattered Clouds
2:53 PM 91.4 °F 39.2 °F 16% 29.73 in 10.0 mi WSW 11.5 mph - N/A   Mostly Cloudy
3:53 PM 91.9 °F 36.0 °F 14% 29.60 in 10.0 mi WSW 8.1 mph - N/A   Mostly Cloudy
4:53 PM 90.0 °F 37.9 °F 16% 29.60 in 10.0 mi SW 10.4 mph 18.4 mph N/A   Mostly Cloudy
5:53 PM 84.9 °F 42.1 °F 22% 29.63 in 10.0 mi SSW 9.2 mph - N/A   Overcast
6:53 PM 82.9 °F 42.1 °F 24% 29.64 in 10.0 mi SW 16.1 mph - N/A   Mostly Cloudy
7:53 PM 79.0 °F 45.0 °F 30% 29.64 in 10.0 mi WSW 11.5 mph - N/A   Mostly Cloudy
8:53 PM 77.0 °F 44.1 °F 31% 29.65 in 10.0 mi West 10.4 mph - N/A   Mostly Cloudy
9:53 PM 75.9 °F 42.1 °F 30% 29.65 in 10.0 mi SW 8.1 mph - N/A   Mostly Cloudy
10:53 PM 73.0 °F 44.1 °F 35% 29.63 in 10.0 mi WSW 10.4 mph - N/A   Mostly Cloudy
11:53 PM 70.0 °F 44.1 °F 39% 29.63 in 10.0 mi SSW 6.9 mph - N/A   Mostly Cloudy